PBO Station Position Time Series. Reference Frame : NAM14
Format Version,1.1.0
4-character ID,SAV5
Station name,Savannah_5
Begin Date, 2007-10-31
End Date, 2016-08-04
Release Date, 2019-08-30
Reference position, 32.1386002339 North Latitude, -81.6963360108 East Longitude, 8.57045 meters elevation,
Date, North (mm), East (mm), Vertical (mm), North Std. Deviation (mm), East Std. Deviation (mm),              Vertical Std. Deviation (mm), Quality,
2007-10-31,0.00, 0.00, 0.00, 1.75, 1.71, 7.36, repro,
2007-11-01,0.47, 1.00, 7.38, 1.79, 1.71, 7.46, repro,
2007-11-02,-0.15, 0.72, 6.00, 1.78, 1.69, 7.39, repro,
2007-11-03,-0.10, 1.14, 3.11, 1.84, 1.76, 7.66, repro,
2007-11-04,1.01, 1.64, 1.51, 1.80, 1.75, 7.50, repro,
2007-11-05,1.19, 1.28, -4.06, 1.82, 1.77, 7.64, repro,
2007-11-06,-0.37, 0.38, 0.10, 1.86, 1.83, 7.82, repro,
2007-11-07,0.24, 1.17, -3.57, 1.91, 1.86, 7.98, repro,
2007-11-09,5.48, 2.04, 5.73, 2.89, 2.97, 12.77, repro,
2007-11-10,1.61, 1.54, 3.74, 1.80, 1.75, 7.51, repro,
2007-11-11,0.72, 0.39, 3.63, 1.79, 1.74, 7.47, repro,
2007-11-12,1.23, 1.48, -0.02, 1.87, 1.83, 7.79, repro,
2007-11-13,0.29, 1.17, 8.09, 1.78, 1.73, 7.47, repro,
2007-11-14,0.45, 0.68, 9.21, 1.80, 1.75, 7.54, repro,
2007-11-15,-1.15, 2.18, 10.10, 1.79, 1.74, 7.51, repro,
2007-11-16,0.48, 1.88, 9.75, 1.91, 1.81, 7.90, repro,
2007-11-17,3.72, 1.74, 14.07, 2.12, 2.02, 8.63, repro,
2007-11-18,-1.23, 1.49, 5.69, 1.79, 1.73, 7.45, repro,
2007-11-19,0.55, 1.41, 11.28, 1.77, 1.73, 7.43, repro,
2007-11-20,1.43, 0.43, 8.00, 1.85, 1.83, 7.84, repro,
2007-11-21,0.94, 1.49, 9.61, 1.85, 1.82, 7.74, repro,
2007-11-22,-2.06, 1.79, 5.26, 1.81, 1.78, 7.56, repro,
2007-11-23,-0.21, 1.94, 4.20, 1.93, 1.78, 7.99, repro,
2007-11-24,-1.65, 0.75, -0.79, 1.98, 1.83, 8.30, repro,
2007-11-25,-2.43, 1.75, 0.31, 1.96, 1.84, 8.08, repro,
2007-11-26,-1.83, 2.34, 8.66, 1.92, 1.80, 8.06, repro,
2007-11-27,-0.10, 0.76, 5.91, 1.94, 1.84, 8.07, repro,
2007-11-28,1.14, 0.40, 2.95, 2.14, 1.98, 8.77, repro,
2007-11-29,-2.92, 0.73, 6.22, 1.90, 1.80, 7.77, repro,
2007-11-30,-1.51, 0.68, 5.80, 1.85, 1.78, 7.61, repro,
2007-12-01,-0.59, 1.34, 0.28, 1.83, 1.77, 7.62, repro,
2007-12-02,-0.20, 2.37, 2.30, 1.81, 1.75, 7.54, repro,
2007-12-03,-2.05, 0.63, 13.17, 2.10, 2.17, 9.16, repro,
2007-12-04,-0.29, 2.36, 11.97, 1.98, 1.87, 8.32, repro,
2007-12-05,0.26, 1.86, 14.79, 2.00, 1.96, 8.29, repro,
2007-12-06,0.60, 1.43, 4.75, 1.88, 1.80, 7.74, repro,
2007-12-07,-0.91, 2.16, 2.86, 1.98, 1.85, 8.08, repro,
2007-12-08,-1.52, 2.49, 5.22, 1.82, 1.74, 7.53, repro,
2007-12-09,0.53, 1.57, 1.09, 1.80, 1.74, 7.54, repro,
2007-12-10,-0.54, 1.86, 6.16, 1.87, 1.77, 7.80, repro,
2007-12-11,-0.05, 0.97, 6.68, 1.80, 1.76, 7.57, repro,
2007-12-12,-0.67, 1.25, 10.37, 1.86, 1.83, 7.87, repro,
2007-12-13,-0.80, 0.91, 8.83, 1.84, 1.79, 7.67, repro,
2007-12-14,-0.45, 2.09, 7.78, 1.78, 1.74, 7.40, repro,
2007-12-15,-1.58, 2.01, 11.43, 1.97, 2.09, 8.67, repro,
2007-12-16,-0.86, -0.27, 11.56, 1.83, 1.83, 7.87, repro,
2007-12-17,2.16, 2.14, 6.48, 2.38, 2.31, 9.88, repro,
2007-12-18,2.01, 2.67, -2.39, 2.66, 2.56, 11.52, repro,
2007-12-19,0.19, 2.10, 1.40, 1.95, 1.85, 7.97, repro,
2007-12-20,-0.28, 2.48, 8.23, 1.79, 1.74, 7.44, repro,
2007-12-21,-2.90, 0.77, 6.67, 1.81, 1.76, 7.59, repro,
2007-12-22,-1.73, 1.10, 7.59, 1.83, 1.81, 7.68, repro,
2007-12-23,-0.30, 2.95, 8.75, 1.84, 1.78, 7.68, repro,
2007-12-24,-1.46, 1.95, 9.15, 1.97, 1.87, 7.96, repro,
2007-12-25,-4.04, 1.60, 6.12, 2.17, 2.06, 8.95, repro,
2007-12-26,-2.80, 3.67, 6.99, 1.95, 1.93, 8.22, repro,
2007-12-27,-2.07, 1.62, 5.91, 1.90, 1.87, 7.91, repro,
2007-12-28,-1.07, 2.48, 5.07, 1.85, 1.81, 7.67, repro,
2007-12-29,-1.26, 3.68, 7.74, 1.82, 1.81, 7.52, repro,
2007-12-30,-1.45, 1.44, -2.14, 1.87, 1.83, 7.64, repro,
2007-12-31,1.08, 1.60, 11.93, 1.82, 1.74, 7.61, repro,
2008-01-01,-0.43, 3.10, 2.71, 1.82, 1.74, 7.52, repro,
2008-01-02,-0.10, 2.51, 1.60, 2.21, 2.13, 9.22, repro,
2008-01-03,3.28, 4.11, -3.76, 5.13, 3.67, 17.34, repro,
2008-01-04,3.88, -0.04, -4.01, 3.35, 3.04, 13.15, repro,
2008-01-05,-0.30, 1.37, -3.98, 2.50, 2.41, 10.23, repro,
2008-01-06,-0.14, 1.57, 8.12, 1.79, 1.74, 7.45, repro,
2008-01-07,1.06, 1.55, 2.58, 1.80, 1.76, 7.46, repro,
2008-01-08,-0.05, 1.14, -1.87, 1.82, 1.80, 7.55, repro,
2008-01-09,-3.08, 0.11, 9.03, 2.04, 2.06, 8.63, repro,
2008-01-10,-0.10, 0.22, 9.17, 1.76, 1.70, 7.31, repro,
2008-01-11,-2.40, 0.73, 9.29, 1.80, 1.77, 7.62, repro,
2008-01-12,-2.43, 0.67, 9.31, 1.79, 1.78, 7.63, repro,
2008-01-13,-0.43, 1.06, 1.51, 1.78, 1.76, 7.47, repro,
2008-01-14,-0.58, 1.66, -1.23, 1.90, 1.83, 8.17, repro,
2008-01-15,-0.58, 1.34, -1.99, 2.19, 2.04, 9.37, repro,
2008-01-16,-1.87, -0.30, -2.03, 2.26, 2.19, 9.55, repro,
2008-01-17,-0.75, 1.05, -5.80, 1.96, 1.94, 8.39, repro,
2008-01-18,-1.59, 1.28, 6.94, 1.88, 1.79, 7.90, repro,
2008-01-19,-2.63, -0.02, -1.57, 1.92, 1.94, 8.35, repro,
2008-01-20,0.29, 1.22, -5.96, 2.00, 1.94, 8.49, repro,
2008-01-21,0.55, -0.24, -15.98, 3.60, 2.98, 14.04, repro,
2008-01-22,0.34, 1.69, -11.98, 2.02, 2.03, 8.92, repro,
2008-01-23,-1.76, 1.12, -1.34, 1.79, 1.73, 7.52, repro,
2008-01-24,-1.93, -0.45, -5.30, 1.80, 1.75, 7.67, repro,
2008-01-25,0.46, 1.23, -4.05, 1.96, 2.00, 8.66, repro,
2008-01-26,-0.71, -0.79, -3.62, 1.87, 1.85, 7.94, repro,
2008-01-27,0.28, 1.34, -2.37, 1.93, 1.90, 8.21, repro,
2008-01-28,0.55, 0.83, 0.15, 1.81, 1.82, 7.82, repro,
2008-01-29,-1.09, 0.97, 5.05, 1.95, 1.93, 8.49, repro,
2008-01-30,1.20, 1.65, -0.46, 1.96, 1.90, 8.37, repro,
2008-01-31,-1.71, -1.19, -4.16, 1.83, 1.82, 7.88, repro,
2008-02-01,-3.08, 0.21, -4.88, 1.90, 1.87, 8.11, repro,
2008-02-02,-0.28, 0.04, -2.60, 1.85, 1.83, 7.93, repro,
2008-02-03,1.16, 2.17, -2.89, 1.83, 1.80, 7.82, repro,
2008-02-04,0.09, 0.73, -2.26, 1.76, 1.71, 7.37, repro,
2008-02-05,-0.04, 0.62, 1.13, 1.89, 1.83, 8.06, repro,
2008-02-06,-1.37, -1.73, 0.65, 1.85, 1.76, 7.90, repro,
2008-02-07,-0.26, 0.92, -4.55, 1.95, 1.90, 8.07, repro,
2008-02-08,0.76, 0.25, -4.28, 1.82, 1.78, 7.75, repro,
2008-02-09,-0.64, -0.11, -1.10, 1.78, 1.71, 7.41, repro,
2008-02-10,-1.24, -0.46, -7.72, 1.74, 1.67, 7.14, repro,
2008-02-11,0.47, 0.68, -7.98, 1.76, 1.68, 7.27, repro,
2008-02-12,-2.30, -0.66, -4.73, 1.76, 1.70, 7.31, repro,
2008-02-13,-3.10, 1.31, 2.77, 1.77, 1.70, 7.32, repro,
2008-02-14,0.64, 0.35, -3.79, 1.76, 1.71, 7.33, repro,
2008-02-15,0.16, -0.09, -2.29, 1.80, 1.68, 7.37, repro,
2008-02-16,0.59, 0.07, -3.29, 1.76, 1.67, 7.25, repro,
2008-02-17,0.06, 0.61, -1.44, 1.76, 1.70, 7.31, repro,
2008-02-18,0.08, 1.25, 1.13, 1.83, 1.78, 7.63, repro,
2008-02-19,-0.36, -0.48, -7.63, 1.76, 1.71, 7.31, repro,
2008-02-20,0.96, -0.80, -5.87, 1.75, 1.68, 7.24, repro,
2008-02-21,-2.01, -1.69, -6.96, 1.74, 1.68, 7.23, repro,
2008-02-22,-1.37, 0.21, -6.53, 1.76, 1.71, 7.32, repro,
2008-02-23,-2.03, -1.67, -11.30, 1.77, 1.71, 7.40, repro,
2008-02-24,-0.50, 0.00, -3.14, 1.76, 1.70, 7.33, repro,
2008-02-25,-0.22, -0.62, -4.65, 1.75, 1.68, 7.28, repro,
2008-02-26,-3.82, -1.24, -0.18, 1.83, 1.83, 7.76, repro,
2008-02-27,-1.37, 0.24, -4.19, 1.76, 1.69, 7.28, repro,
2008-02-28,-0.22, 0.61, -7.05, 2.01, 1.88, 8.36, repro,
2008-02-29,2.72, -0.23, -4.08, 2.80, 2.46, 11.33, repro,
2008-03-01,-0.54, -0.28, -3.32, 1.79, 1.74, 7.41, repro,
2008-03-02,0.48, -0.25, -5.90, 1.90, 1.84, 7.73, repro,
2008-03-03,-0.90, 0.52, -0.03, 1.76, 1.68, 7.30, repro,
2008-03-04,-3.21, -0.23, 0.65, 1.77, 1.67, 7.24, repro,
2008-03-05,-1.06, 1.52, -3.85, 2.13, 2.04, 9.25, repro,
2008-03-06,0.00, -0.68, -4.57, 2.17, 2.20, 8.86, repro,
2008-03-07,-2.29, 0.66, -8.78, 1.78, 1.75, 7.35, repro,
2008-03-08,-0.72, -0.60, -0.55, 2.00, 1.84, 8.16, repro,
2008-03-09,-0.08, 0.42, -3.52, 1.81, 1.76, 7.44, repro,
2008-03-10,-3.62, 0.41, -10.74, 2.37, 2.46, 9.86, repro,
2008-03-11,-0.86, -1.16, -3.35, 1.78, 1.72, 7.37, repro,
2008-03-12,-2.28, 1.33, 5.57, 1.89, 1.91, 8.05, repro,
2008-03-13,-0.42, -0.48, 5.99, 1.93, 1.81, 7.94, repro,
2008-03-14,-2.31, -0.48, 7.80, 1.81, 1.74, 7.50, repro,
2008-03-15,-1.61, 1.30, 8.12, 1.81, 1.76, 7.50, repro,
2008-03-16,0.59, 0.85, -12.90, 2.01, 1.96, 8.56, repro,
2008-03-17,-1.33, -0.21, -7.83, 1.98, 1.92, 8.12, repro,
2008-03-18,-1.34, 0.52, 2.33, 1.84, 1.80, 7.72, repro,
2008-03-19,-1.86, 0.72, 3.17, 1.81, 1.78, 7.56, repro,
2008-03-20,0.32, 0.81, -3.81, 1.86, 1.82, 7.68, repro,
2008-03-21,-0.02, -0.56, -3.70, 1.81, 1.76, 7.40, repro,
2008-03-22,-0.06, 1.15, 4.10, 1.79, 1.75, 7.31, repro,
2008-03-23,-1.56, 1.30, -4.84, 1.78, 1.76, 7.29, repro,
2008-03-24,-0.56, 1.21, -3.50, 1.80, 1.78, 7.41, repro,
2008-03-25,-0.61, -0.17, -7.55, 1.84, 1.78, 7.69, repro,
2008-03-26,-0.15, -0.03, -3.90, 1.82, 1.71, 7.47, repro,
2008-03-27,-1.04, 0.40, 3.52, 1.82, 1.76, 7.56, repro,
2008-03-28,-1.85, 1.31, 5.02, 1.81, 1.79, 7.47, repro,
2008-03-29,-0.88, -0.86, 2.84, 1.75, 1.70, 7.15, repro,
2008-03-30,-1.42, 0.47, 5.69, 1.74, 1.69, 7.14, repro,
2008-03-31,-2.29, 0.18, 5.48, 1.74, 1.69, 7.11, repro,
2008-04-01,-0.87, 0.93, 8.59, 1.82, 1.80, 7.51, repro,
2008-04-02,-0.73, -0.21, 7.99, 1.78, 1.75, 7.32, repro,
2008-04-03,-2.08, 1.34, 9.20, 1.76, 1.72, 7.20, repro,
2008-04-04,-1.88, 1.50, 2.94, 1.76, 1.71, 7.24, repro,
2008-04-05,-2.51, 0.24, 5.33, 1.79, 1.72, 7.26, repro,
2008-04-06,-0.26, -1.20, 7.21, 1.77, 1.68, 7.21, repro,
2008-04-07,-2.66, 0.54, 1.94, 1.74, 1.67, 7.09, repro,
2008-04-08,-1.26, 1.13, -0.56, 1.74, 1.70, 7.16, repro,
2008-04-09,-1.45, 0.35, -0.85, 1.74, 1.67, 7.09, repro,
2008-04-10,-1.71, -0.34, 0.24, 1.74, 1.67, 7.13, repro,
2008-04-11,0.02, 0.09, 4.18, 1.74, 1.67, 7.08, repro,
2008-04-12,-2.53, 0.19, 5.08, 1.98, 1.80, 7.86, repro,
2008-04-13,-2.54, 1.31, 5.54, 1.75, 1.70, 7.21, repro,
2008-04-14,-1.17, 1.01, 0.51, 1.74, 1.69, 7.12, repro,
2008-04-15,-1.67, 2.47, 2.06, 1.78, 1.71, 7.19, repro,
2008-04-16,-1.76, 0.82, -0.75, 1.77, 1.71, 7.19, repro,
2008-04-17,-2.58, 1.43, -3.47, 1.74, 1.68, 7.15, repro,
2008-04-18,-1.23, -0.02, -0.02, 1.74, 1.67, 7.14, repro,
2008-04-19,-1.37, 1.26, 8.01, 1.75, 1.70, 7.25, repro,
2008-04-20,-2.75, -2.56, -9.42, 2.24, 2.22, 9.38, repro,
2008-04-21,-1.97, 0.53, 2.61, 1.75, 1.67, 7.16, repro,
2008-04-22,-1.75, -0.13, -1.50, 1.74, 1.66, 7.14, repro,
2008-04-23,-1.71, 1.47, -3.47, 1.81, 1.75, 7.56, repro,
2008-04-24,-2.44, -0.30, -0.27, 1.79, 1.73, 7.44, repro,
2008-04-25,-2.48, 0.23, 3.76, 1.74, 1.70, 7.18, repro,
2008-04-26,-1.64, 0.46, 4.73, 1.92, 1.86, 8.31, repro,
2008-04-27,-1.77, 0.42, -4.82, 1.83, 1.76, 7.58, repro,
2008-04-28,-1.29, 0.51, 16.36, 1.90, 1.77, 8.11, repro,
2008-04-29,-2.16, 0.83, 2.48, 1.78, 1.79, 7.59, repro,
2008-04-30,-2.77, -0.33, 3.09, 1.81, 1.86, 7.57, repro,
2008-05-01,-1.97, -0.33, 0.82, 1.78, 1.74, 7.40, repro,
2008-05-02,-2.02, 0.13, 0.19, 1.76, 1.70, 7.27, repro,
2008-05-03,-1.01, 0.85, 7.09, 1.76, 1.69, 7.26, repro,
2008-05-04,-3.12, -1.29, 2.36, 1.77, 1.70, 7.33, repro,
2008-05-05,-2.97, -0.05, -2.02, 1.79, 1.77, 7.51, repro,
2008-05-06,-2.90, 1.77, 13.17, 1.85, 1.82, 7.85, repro,
2008-05-07,-1.39, 0.94, 1.86, 1.75, 1.68, 7.23, repro,
2008-05-08,-2.64, -0.04, 5.80, 1.78, 1.68, 7.30, repro,
2008-05-09,-2.58, 1.14, 6.89, 2.03, 1.93, 8.33, repro,
2008-05-10,-1.44, 0.64, 1.63, 1.78, 1.70, 7.35, repro,
2008-05-11,-4.70, 4.69, 11.24, 1.96, 1.90, 8.09, repro,
2008-05-12,-2.13, 0.93, 8.63, 1.77, 1.71, 7.32, repro,
2008-05-13,-2.32, 1.00, 3.24, 1.77, 1.71, 7.37, repro,
2008-05-14,-1.68, 0.31, 5.85, 1.76, 1.68, 7.28, repro,
2008-05-15,-0.70, 1.00, 1.98, 1.81, 1.74, 7.55, repro,
2008-05-16,-2.76, 1.10, 4.36, 1.78, 1.71, 7.40, repro,
2008-05-17,-1.47, 0.71, 1.83, 1.79, 1.73, 7.42, repro,
2008-05-18,-2.17, 2.03, 9.32, 1.81, 1.77, 7.60, repro,
2008-05-19,-2.54, 0.13, 4.08, 1.77, 1.68, 7.30, repro,
2008-05-20,-2.10, 1.43, 9.59, 1.77, 1.68, 7.30, repro,
2008-05-21,-4.40, 2.69, 8.03, 1.84, 1.82, 7.67, repro,
2008-05-22,-2.69, 1.33, 5.05, 1.85, 1.74, 7.61, repro,
2008-05-23,-2.36, 0.63, 12.20, 1.78, 1.71, 7.47, repro,
2008-05-24,-0.98, 0.26, 2.57, 1.97, 1.83, 8.50, repro,
2008-05-25,-1.14, -0.31, 6.00, 1.81, 1.69, 7.41, repro,
2008-05-26,-2.20, 0.69, 3.04, 1.84, 1.71, 7.54, repro,
2008-05-27,-1.70, -0.57, -4.86, 1.86, 1.73, 7.69, repro,
2008-05-28,-2.16, 0.67, 1.17, 1.88, 1.80, 7.95, repro,
2008-05-29,-0.61, 0.16, 8.98, 2.39, 2.28, 10.05, repro,
2008-05-30,-1.18, 0.95, 1.52, 1.80, 1.70, 7.43, repro,
2008-05-31,-2.09, 0.67, 6.13, 1.82, 1.72, 7.52, repro,
2008-06-01,-2.69, -0.03, 1.08, 2.07, 1.95, 8.87, repro,
2008-06-02,-1.78, 1.83, 10.02, 1.87, 1.82, 7.68, repro,
2008-06-03,-2.93, -0.86, 1.49, 2.45, 2.45, 10.55, repro,
2008-06-05,-2.84, -0.59, 13.47, 2.16, 2.15, 9.03, repro,
2008-06-06,-1.80, 0.48, 13.63, 1.79, 1.75, 7.45, repro,
2008-06-07,-3.54, -0.78, 22.13, 1.87, 1.79, 7.80, repro,
2008-06-08,-0.97, 0.11, 2.18, 1.92, 1.85, 8.30, repro,
2008-06-09,-3.64, -1.25, 7.94, 1.79, 1.73, 7.52, repro,
2008-06-10,-2.72, -0.63, 13.93, 1.83, 1.76, 7.69, repro,
2008-06-12,1.15, 0.64, 3.20, 1.93, 1.89, 8.23, repro,
2008-06-13,-0.99, 1.60, -0.40, 1.84, 1.78, 7.80, repro,
2008-06-14,-2.39, 0.35, -0.42, 1.80, 1.79, 7.67, repro,
2008-06-15,-3.37, -0.98, 2.56, 1.99, 2.01, 8.42, repro,
2008-06-16,-2.68, 0.49, -5.47, 1.77, 1.72, 7.45, repro,
2008-06-17,-2.84, -0.17, -1.45, 1.76, 1.70, 7.37, repro,
2008-06-20,-4.54, 1.53, -2.94, 1.78, 1.72, 7.42, repro,
2008-06-21,-2.88, -0.18, 8.69, 1.88, 1.78, 7.84, repro,
2008-06-22,-1.37, -1.25, 7.35, 1.87, 1.76, 7.71, repro,
2008-06-23,-2.63, -0.76, 8.27, 1.85, 1.73, 7.86, repro,
2008-06-24,-2.19, -0.62, -2.02, 1.84, 1.75, 7.89, repro,
2008-06-25,0.28, -2.17, -4.72, 1.88, 1.83, 7.76, repro,
2008-06-26,-4.36, 0.82, 9.31, 2.02, 1.83, 8.42, repro,
2008-06-27,-2.14, 0.72, -1.83, 1.86, 1.80, 7.87, repro,
2008-06-28,-1.05, -0.05, 5.28, 1.85, 1.75, 7.89, repro,
2008-06-29,-3.56, -1.45, 3.05, 1.87, 1.80, 8.07, repro,
2008-06-30,-3.62, 2.09, 22.07, 1.88, 1.81, 7.86, repro,
2008-07-01,-3.71, 0.08, 0.45, 1.99, 1.82, 8.45, repro,
2008-07-02,-1.61, -0.40, 8.38, 1.85, 1.81, 7.82, repro,
2008-07-03,-3.37, 0.45, 10.63, 2.12, 2.18, 9.02, repro,
2008-07-04,-4.78, -2.19, 6.90, 2.09, 1.95, 8.40, repro,
2008-07-05,-2.24, -0.59, -3.32, 1.91, 1.85, 8.02, repro,
2008-07-06,-2.23, -0.36, 1.59, 1.81, 1.74, 7.70, repro,
2008-07-07,-3.18, 0.66, 6.00, 1.93, 1.78, 8.36, repro,
2008-07-08,-3.12, 0.95, 18.61, 1.79, 1.74, 7.56, repro,
2008-07-09,-4.06, 0.19, 6.08, 1.85, 1.74, 7.95, repro,
2008-07-10,-2.49, -1.64, 20.46, 1.88, 1.88, 7.95, repro,
2008-07-11,-3.57, 1.49, 20.77, 1.99, 1.90, 8.50, repro,
2008-07-12,-4.70, 0.99, 10.01, 2.13, 2.15, 9.06, repro,
2008-07-13,-4.29, -2.23, 12.67, 1.91, 1.76, 8.20, repro,
2008-07-14,-2.10, -0.69, 22.48, 2.03, 1.96, 8.49, repro,
2008-07-15,-3.19, -1.05, 12.40, 1.98, 1.94, 8.16, repro,
2008-07-16,-6.02, 0.39, 7.67, 1.96, 2.00, 8.43, repro,
2008-07-17,-3.22, -0.54, 11.65, 1.77, 1.72, 7.52, repro,
2008-07-18,-3.26, 0.43, 17.79, 1.84, 1.88, 7.93, repro,
2008-07-19,-2.91, 0.13, 7.30, 1.77, 1.76, 7.65, repro,
2008-07-20,-2.78, -0.52, 9.35, 1.84, 1.81, 7.95, repro,
2008-07-21,-0.48, 1.79, 3.38, 1.83, 1.76, 7.76, repro,
2008-07-22,-3.64, 1.29, 6.63, 1.81, 1.72, 7.71, repro,
2008-07-23,-3.76, 1.98, 6.28, 1.86, 1.87, 8.22, repro,
2008-07-24,-4.98, -0.66, 16.45, 2.09, 2.01, 8.63, repro,
2008-07-25,-2.61, -1.54, 31.36, 5.00, 5.51, 24.38, repro,
2008-07-30,-4.09, 5.64, 8.78, 3.87, 3.85, 16.42, repro,
2008-08-01,-2.22, 0.49, 10.68, 2.30, 2.07, 9.48, repro,
2008-08-02,0.83, 3.06, 8.63, 1.75, 1.72, 7.46, repro,
2008-08-03,-3.75, 1.98, 8.76, 1.96, 1.81, 8.34, repro,
2008-08-04,-4.40, -0.93, 17.43, 2.49, 2.31, 10.41, repro,
2008-08-05,-2.88, -1.39, 7.63, 1.78, 1.72, 7.50, repro,
2008-08-06,-4.51, 1.09, 8.38, 1.85, 1.77, 7.98, repro,
2008-08-07,-2.31, -1.49, 15.07, 2.38, 2.40, 10.17, repro,
2008-08-08,-1.90, 2.84, 6.29, 1.99, 1.86, 8.34, repro,
2008-08-09,-3.88, -1.49, 3.51, 1.91, 1.84, 7.94, repro,
2008-08-10,-3.69, 0.77, 15.84, 1.78, 1.73, 7.54, repro,
2008-08-11,-3.71, 3.10, 14.91, 2.14, 2.05, 8.94, repro,
2008-08-12,-3.88, 1.75, 11.66, 1.75, 1.70, 7.42, repro,
2008-08-13,-3.39, 2.18, 18.62, 2.09, 2.06, 8.75, repro,
2008-08-14,-3.18, 1.20, 13.55, 1.88, 1.75, 7.81, repro,
2008-08-15,-3.90, 2.65, 5.78, 2.07, 2.00, 8.97, repro,
2008-08-16,-2.50, 1.91, 2.29, 1.81, 1.73, 7.61, repro,
2008-08-17,-1.74, 1.04, -1.07, 1.85, 1.76, 7.75, repro,
2008-08-18,-0.16, 0.95, 1.92, 1.89, 1.82, 7.92, repro,
2008-08-19,-3.70, 0.26, 3.86, 2.13, 1.99, 8.66, repro,
2008-08-20,-2.38, 0.46, 10.00, 1.81, 1.75, 7.61, repro,
2008-08-21,-1.98, 1.55, 11.67, 1.89, 1.93, 8.01, repro,
2008-08-22,-2.84, -0.34, 1.62, 1.87, 1.85, 7.86, repro,
2008-08-23,-1.95, -2.33, 9.22, 1.90, 1.82, 8.07, repro,
2008-08-24,-2.96, -0.51, 8.52, 1.83, 1.77, 7.79, repro,
2008-08-25,-4.57, -0.01, 16.47, 2.20, 2.06, 9.18, repro,
2008-08-27,-3.10, 0.66, 8.74, 1.83, 1.78, 7.85, repro,
2008-08-28,-2.38, 1.00, 9.05, 1.88, 1.87, 7.99, repro,
2008-08-29,-0.67, 0.73, 5.19, 2.09, 1.92, 8.64, repro,
2008-08-30,-2.98, 1.63, 6.61, 1.80, 1.75, 7.71, repro,
2008-08-31,-1.83, -1.57, 0.43, 1.91, 1.80, 8.04, repro,
2008-09-01,-1.50, -1.07, 12.43, 1.93, 1.86, 8.05, repro,
2008-09-02,-2.93, -1.41, 10.30, 1.86, 1.84, 7.76, repro,
2008-09-03,-1.87, -0.58, 10.54, 1.80, 1.75, 7.68, repro,
2008-09-04,-1.87, -0.49, 11.34, 2.09, 1.89, 8.36, repro,
2008-09-05,-3.44, 1.13, 3.70, 1.89, 1.79, 8.02, repro,
2008-09-06,-3.46, 3.11, 7.20, 1.81, 1.76, 7.76, repro,
2008-09-07,-2.76, -0.50, 5.13, 1.82, 1.76, 7.67, repro,
2008-09-08,-0.20, 0.08, -4.36, 1.82, 1.75, 7.61, repro,
2008-09-09,-1.18, 0.27, 1.98, 1.77, 1.76, 7.61, repro,
2008-09-10,-2.22, 1.27, 6.36, 1.99, 1.88, 8.47, repro,
2008-09-11,-2.64, 2.00, 4.93, 1.99, 1.84, 8.27, repro,
2008-09-12,-2.23, 0.56, -0.22, 1.95, 1.85, 8.15, repro,
2008-09-13,-0.02, -0.21, 7.72, 1.83, 1.81, 7.81, repro,
2008-09-14,-2.14, 1.04, 3.28, 1.81, 1.78, 7.71, repro,
2008-09-15,-2.13, -0.00, -6.45, 1.83, 1.79, 7.74, repro,
2008-09-16,-1.34, 0.69, -1.55, 1.85, 1.79, 7.99, repro,
2008-09-17,-2.56, -1.50, 0.67, 1.84, 1.79, 7.84, repro,
2008-09-18,-1.54, 0.87, -7.12, 1.79, 1.75, 7.49, repro,
2008-09-19,-1.93, 0.01, -1.22, 1.75, 1.73, 7.43, repro,
2008-09-20,-2.83, 1.05, -7.09, 1.75, 1.75, 7.53, repro,
2008-09-21,-3.62, 0.93, 1.73, 1.79, 1.76, 7.58, repro,
2008-09-22,-0.52, 0.29, -1.60, 1.84, 1.75, 7.66, repro,
2008-09-23,-1.64, -0.17, 1.05, 1.78, 1.75, 7.58, repro,
2008-09-25,-2.91, -0.64, 1.90, 1.76, 1.72, 7.41, repro,
2008-09-26,-2.56, 1.35, 6.75, 1.76, 1.74, 7.48, repro,
2008-09-27,-1.21, -0.00, 9.12, 1.85, 1.77, 7.62, repro,
2008-09-28,-1.67, 1.03, 6.32, 1.83, 1.88, 7.75, repro,
2008-09-29,-1.64, -1.36, -4.84, 1.84, 1.80, 7.73, repro,
2008-09-30,-2.17, 1.01, 3.04, 1.80, 1.72, 7.55, repro,
2008-10-01,-1.78, 0.65, 1.67, 1.73, 1.70, 7.28, repro,
2008-10-02,0.77, 1.18, 2.18, 1.99, 2.11, 8.78, repro,
2008-10-03,-0.89, 1.14, 2.40, 1.93, 1.87, 8.07, repro,
2008-10-04,-0.13, 0.03, 0.93, 1.76, 1.71, 7.38, repro,
2008-10-05,-1.81, 1.29, -1.05, 1.75, 1.70, 7.29, repro,
2008-10-06,-1.21, 0.47, -0.83, 1.74, 1.70, 7.31, repro,
2008-10-07,-2.06, 1.55, -0.43, 1.80, 1.74, 7.60, repro,
2008-10-08,-2.88, 1.42, 5.59, 1.85, 1.75, 7.74, repro,
2008-10-09,-4.34, 0.80, 8.64, 1.86, 1.78, 7.84, repro,
2008-10-10,1.76, 0.88, 2.14, 1.92, 1.83, 7.94, repro,
2008-10-11,-2.15, 0.20, -2.98, 1.76, 1.73, 7.34, repro,
2008-10-12,-2.82, -0.32, 1.20, 1.73, 1.69, 7.28, repro,
2008-10-13,-0.50, 0.95, -6.03, 1.87, 1.97, 8.05, repro,
2008-10-14,-0.10, -0.72, -1.79, 1.73, 1.69, 7.30, repro,
2008-10-15,1.23, 0.20, -5.34, 1.78, 1.72, 7.40, repro,
2008-10-16,0.01, -0.14, -5.67, 1.77, 1.72, 7.34, repro,
2008-10-17,-0.71, -0.53, 0.20, 1.74, 1.71, 7.35, repro,
2008-10-18,-2.33, 1.77, 13.89, 1.76, 1.72, 7.48, repro,
2008-10-19,-0.45, 0.95, 0.11, 1.72, 1.68, 7.23, repro,
2008-10-20,0.51, 0.15, -7.07, 1.85, 1.78, 7.78, repro,
2008-10-21,1.31, 0.29, -7.46, 1.74, 1.69, 7.27, repro,
2008-10-22,0.56, 0.08, 0.08, 1.86, 1.80, 7.83, repro,
2008-10-23,-2.25, 1.12, -6.81, 1.77, 1.73, 7.44, repro,
2008-10-24,-3.31, 1.39, -3.43, 1.77, 1.73, 7.47, repro,
2008-10-25,-1.97, 2.27, 3.67, 1.86, 1.85, 7.99, repro,
2008-10-26,-0.44, 1.41, 3.47, 1.76, 1.71, 7.35, repro,
2008-10-27,-1.62, 0.85, -3.15, 1.78, 1.73, 7.47, repro,
2008-10-28,-0.91, 0.95, -4.19, 1.86, 1.99, 7.91, repro,
2008-10-29,0.17, 1.60, -4.03, 1.92, 1.94, 8.16, repro,
2008-10-30,1.14, 0.90, -8.35, 1.75, 1.71, 7.37, repro,
2008-10-31,2.41, 0.31, -7.46, 1.94, 1.99, 8.45, repro,
2008-11-01,0.45, -0.12, -3.39, 1.79, 1.74, 7.51, repro,
2008-11-02,-0.80, -0.37, 1.51, 1.80, 1.82, 7.83, repro,
2008-11-03,-5.01, -0.34, -4.70, 2.47, 2.34, 10.34, repro,
2008-11-04,-3.11, 1.51, 0.43, 2.66, 2.49, 11.06, repro,
2008-11-05,-3.16, 1.41, 2.44, 4.26, 3.65, 15.91, repro,
2008-11-06,0.46, 1.49, -0.23, 1.76, 1.72, 7.37, repro,
2008-11-07,1.35, 0.28, 0.80, 1.78, 1.75, 7.40, repro,
2008-11-08,-0.16, 2.03, -2.38, 1.79, 1.73, 7.53, repro,
2008-11-09,1.18, 2.15, 6.06, 1.77, 1.75, 7.45, repro,
2008-11-10,1.19, 2.02, 1.81, 1.78, 1.75, 7.43, repro,
2008-11-11,0.92, 0.85, -0.34, 1.75, 1.71, 7.33, repro,
2008-11-12,-1.70, 1.83, -5.38, 1.74, 1.71, 7.33, repro,
2008-11-13,-1.55, 2.74, 0.73, 2.01, 2.12, 8.75, repro,
2008-11-14,-0.49, 0.69, 10.73, 1.82, 1.79, 7.72, repro,
2008-11-15,-0.85, 0.67, 9.53, 1.89, 1.91, 8.02, repro,
2008-11-16,-0.33, 2.49, 1.34, 1.78, 1.73, 7.43, repro,
2008-11-17,2.22, 1.00, -8.62, 1.87, 1.79, 7.79, repro,
2008-11-18,0.52, 2.03, -7.02, 1.74, 1.71, 7.33, repro,
2008-11-19,2.45, 1.10, -11.58, 1.76, 1.75, 7.44, repro,
2008-11-20,-0.40, 2.60, -8.55, 1.80, 1.78, 7.63, repro,
2008-11-21,0.48, 1.62, -14.72, 1.81, 1.76, 7.57, repro,
2008-11-22,1.38, 0.82, -19.23, 1.79, 1.79, 7.63, repro,
2008-11-23,0.62, 1.38, -17.88, 1.92, 1.90, 8.28, repro,
2008-11-24,2.40, 2.11, -12.72, 2.17, 2.22, 8.98, repro,
2008-11-25,0.19, 2.14, -15.08, 1.81, 1.79, 7.63, repro,
2008-11-26,0.99, 2.59, -4.88, 1.77, 1.73, 7.40, repro,
2008-11-27,2.33, 1.45, -6.86, 1.84, 1.80, 7.59, repro,
2008-11-28,-1.86, 0.67, 4.19, 2.21, 2.11, 9.42, repro,
2008-11-29,-1.27, -0.05, 8.88, 2.25, 2.35, 10.00, repro,
2008-11-30,-3.43, 0.82, 6.11, 2.01, 2.00, 8.59, repro,
2008-12-01,0.66, 2.16, 4.90, 1.91, 1.87, 7.97, repro,
2008-12-02,0.28, 1.90, 0.89, 1.77, 1.73, 7.43, repro,
2008-12-03,1.98, 2.07, -4.96, 1.77, 1.75, 7.47, repro,
2008-12-04,1.03, 1.57, -8.10, 1.82, 1.76, 7.69, repro,
2008-12-05,-1.23, 2.42, -12.75, 1.76, 1.74, 7.43, repro,
2008-12-06,0.24, 1.36, -5.96, 1.76, 1.75, 7.47, repro,
2008-12-07,0.19, 2.78, -4.56, 1.76, 1.73, 7.42, repro,
2008-12-08,1.56, 1.87, -9.03, 1.77, 1.76, 7.45, repro,
2008-12-09,-1.74, 1.50, -5.11, 1.78, 1.77, 7.59, repro,
2008-12-10,-2.98, 2.16, -0.56, 1.91, 1.90, 7.97, repro,
2008-12-11,-1.45, 1.18, -7.15, 2.25, 2.31, 9.45, repro,
2008-12-12,0.48, 1.82, -6.27, 1.83, 1.83, 7.79, repro,
2008-12-13,-5.78, 0.24, 7.21, 4.99, 5.21, 21.12, repro,
2008-12-15,-4.81, -0.21, -4.51, 5.79, 6.07, 21.29, repro,
2008-12-16,-0.71, 1.35, -9.79, 1.74, 1.70, 7.34, repro,
2008-12-17,1.55, 0.38, -4.81, 1.75, 1.72, 7.47, repro,
2008-12-18,0.09, 0.32, -4.40, 1.79, 1.79, 7.67, repro,
2008-12-19,0.12, 1.87, -9.89, 1.79, 1.76, 7.48, repro,
2008-12-20,-1.19, -0.12, -5.49, 1.77, 1.75, 7.45, repro,
2008-12-21,-2.43, 0.21, -9.24, 1.76, 1.76, 7.46, repro,
2008-12-22,-0.62, 0.59, -8.35, 1.87, 1.91, 8.03, repro,
2008-12-23,0.28, 1.48, -10.18, 1.76, 1.74, 7.44, repro,
2008-12-24,-2.06, 0.38, -9.68, 1.79, 1.78, 7.58, repro,
2008-12-25,-0.28, 0.43, -6.84, 1.74, 1.70, 7.33, repro,
2008-12-26,-2.13, -0.49, -8.62, 1.73, 1.70, 7.33, repro,
2008-12-27,-0.06, 0.25, -13.47, 1.77, 1.73, 7.42, repro,
2008-12-28,0.93, -0.44, -2.62, 1.76, 1.75, 7.46, repro,
2008-12-29,-0.50, 1.42, 0.66, 1.75, 1.72, 7.46, repro,
2008-12-30,1.17, 1.08, -6.85, 1.79, 1.76, 7.71, repro,
2008-12-31,0.21, 0.68, -4.40, 1.74, 1.70, 7.33, repro,
2009-01-01,0.11, 0.86, -6.23, 1.81, 1.84, 7.94, repro,
2009-01-02,-0.98, -0.21, -9.12, 1.79, 1.80, 7.66, repro,
2009-01-03,-1.66, 1.30, -2.68, 1.79, 1.80, 7.69, repro,
2009-01-04,-1.00, 1.50, -3.04, 1.78, 1.73, 7.55, repro,
2009-01-05,0.41, 1.00, -1.85, 1.80, 1.80, 7.78, repro,
2009-01-06,-2.07, 0.60, 1.88, 1.78, 1.77, 7.68, repro,
2009-01-07,-2.98, 0.11, 9.43, 1.84, 1.89, 7.83, repro,
2009-01-08,-0.81, 0.98, 7.95, 1.84, 1.80, 7.74, repro,